User: anonymous   Login
Location: Owatonna
(44.0840°N, 93.2260°W)
Time: 16:49:33
(UTC-05:00)
Language:

Tiangong 1 - Orbit

View from above orbital plane
View from above orbital plane
View from above satellite
View from above satellite

Ground track
Ground track

The orbit data is extracted from the following two-line orbital elements,

1 37820U 11053A   16152.44746118  .00014080  00000-0  15571-3 0  9995
2 37820  42.7640 347.4155 0014904 287.6364 148.6781 15.62725675267969
Epoch (UTC): 31 May 2016 10:44:20
Eccentricity: 0.0014904
inclination: 42.7640°
perigee height: 370 km
apogee height: 390 km
right ascension of ascending node: 347.4155°
argument of perigee: 287.6364°
revolutions per day: 15.62725675
mean anomaly at epoch: 148.6781°
orbit number at epoch: 26796

The dashed part of the orbit path shows where the satellite is in the earth's shadow,  

DLR